APZ1011 RKSS-RKPC

Flight info

Callsign APZ1011
Flight time N/A
Altitude 26000
Route BULTI2T BULTI Y711 DOTOL DOTOL2M
Aircraft B738/M-SDE2E3FGHIRWXY/LB1

Departure

Time N/A
Airport Gimpo International Airport (RKSS)

Arrival

Time 2026-05-01 07:56
Airport Jeju International Airport (RKPC)
Time Latitude Longitude Altitude Speed Heading
2026-05-01 07:23 36.92664 126.77909 20964 ft 466 kts 173°
2026-05-01 07:23 36.86272 126.79352 21868 ft 473 kts 173°
2026-05-01 07:24 36.83017 126.80086 22302 ft 476 kts 173°
2026-05-01 07:24 36.79736 126.80826 22714 ft 480 kts 173°
2026-05-01 07:24 36.76435 126.81569 23148 ft 483 kts 174°
2026-05-01 07:24 36.73162 126.82299 23534 ft 486 kts 175°
2026-05-01 07:25 36.69798 126.82753 23842 ft 485 kts 183°
2026-05-01 07:25 36.66409 126.82847 24166 ft 487 kts 185°
2026-05-01 07:25 36.63006 126.82882 24477 ft 491 kts 185°
2026-05-01 07:25 36.59569 126.82950 24784 ft 495 kts 185°
2026-05-01 07:26 36.56113 126.83062 25216 ft 495 kts 184°
2026-05-01 07:26 36.52687 126.83205 25735 ft 492 kts 185°
2026-05-01 07:26 36.49259 126.83353 25880 ft 495 kts 185°
2026-05-01 07:26 36.45829 126.83498 25888 ft 503 kts 185°
2026-05-01 07:27 36.42305 126.83644 25898 ft 508 kts 185°
2026-05-01 07:27 36.38775 126.83778 25888 ft 507 kts 186°
2026-05-01 07:27 36.35274 126.83606 25891 ft 500 kts 192°
2026-05-01 07:27 36.31818 126.83204 25893 ft 498 kts 193°
2026-05-01 07:28 36.28368 126.82748 25899 ft 498 kts 194°
2026-05-01 07:28 36.24926 126.82306 25899 ft 497 kts 193°
2026-05-01 07:28 36.21477 126.81897 25905 ft 498 kts 193°
2026-05-01 07:28 36.18029 126.81514 25914 ft 497 kts 193°
2026-05-01 07:29 36.14619 126.81143 25923 ft 497 kts 193°
2026-05-01 07:29 36.11167 126.80769 25928 ft 497 kts 193°
2026-05-01 07:29 36.07715 126.80394 25927 ft 497 kts 193°
2026-05-01 07:29 36.04261 126.80018 25929 ft 497 kts 193°
2026-05-01 07:30 36.00817 126.79643 25933 ft 497 kts 193°
2026-05-01 07:30 35.97368 126.79268 25936 ft 497 kts 193°
2026-05-01 07:30 35.93924 126.78894 25935 ft 497 kts 193°
2026-05-01 07:30 35.90472 126.78519 25932 ft 497 kts 193°
2026-05-01 07:31 35.87026 126.78146 25936 ft 497 kts 193°
2026-05-01 07:31 35.76685 126.77032 25943 ft 497 kts 193°
2026-05-01 07:32 35.69793 126.76291 25940 ft 497 kts 193°
2026-05-01 07:32 35.66342 126.75920 25939 ft 497 kts 193°
2026-05-01 07:33 35.59494 126.75185 25939 ft 497 kts 193°
2026-05-01 07:33 35.56052 126.74815 25940 ft 496 kts 193°
2026-05-01 07:33 35.49157 126.74078 25946 ft 496 kts 193°
2026-05-01 07:34 35.45718 126.73712 25947 ft 496 kts 193°
2026-05-01 07:34 35.38877 126.72987 25940 ft 496 kts 193°
2026-05-01 07:34 35.35435 126.72623 25936 ft 496 kts 193°
2026-05-01 07:35 35.31998 126.72259 25945 ft 495 kts 193°
2026-05-01 07:35 35.28562 126.71896 25942 ft 495 kts 193°
2026-05-01 07:35 35.25126 126.71533 25949 ft 494 kts 193°
2026-05-01 07:35 35.21693 126.71169 25953 ft 494 kts 193°
2026-05-01 07:36 35.18269 126.70808 25947 ft 494 kts 193°
2026-05-01 07:36 35.14866 126.70453 25925 ft 484 kts 193°
2026-05-01 07:36 35.11531 126.70106 25934 ft 477 kts 194°
2026-05-01 07:36 35.08238 126.69760 25937 ft 475 kts 194°
2026-05-01 07:37 35.01794 126.69072 25729 ft 476 kts 194°
2026-05-01 07:37 34.98505 126.68723 25284 ft 471 kts 193°
2026-05-01 07:37 34.95236 126.68380 24800 ft 467 kts 193°
2026-05-01 07:38 34.92000 126.68040 24314 ft 464 kts 193°
2026-05-01 07:38 34.88836 126.67707 23801 ft 462 kts 193°
2026-05-01 07:38 34.82462 126.67034 22665 ft 456 kts 192°
2026-05-01 07:39 34.79318 126.66703 22146 ft 452 kts 192°
2026-05-01 07:39 34.76195 126.66375 21645 ft 448 kts 192°
2026-05-01 07:39 34.70020 126.65726 20624 ft 441 kts 191°
2026-05-01 07:40 34.66974 126.65406 20137 ft 437 kts 191°
2026-05-01 07:40 34.63949 126.65088 19646 ft 434 kts 190°
2026-05-01 07:40 34.60954 126.64774 19160 ft 430 kts 190°
2026-05-01 07:40 34.57978 126.64462 18678 ft 427 kts 189°
2026-05-01 07:41 34.55051 126.64154 18179 ft 425 kts 189°
2026-05-01 07:41 34.52118 126.63848 17639 ft 422 kts 189°
2026-05-01 07:41 34.46313 126.63399 16757 ft 414 kts 182°
2026-05-01 07:42 34.43444 126.63506 16256 ft 412 kts 181°
2026-05-01 07:42 34.40590 126.63676 15819 ft 408 kts 180°
2026-05-01 07:42 34.37758 126.63856 15366 ft 405 kts 180°
2026-05-01 07:42 34.34960 126.64025 14900 ft 402 kts 180°
2026-05-01 07:43 34.32168 126.64181 14444 ft 400 kts 180°
2026-05-01 07:43 34.29423 126.64325 14007 ft 397 kts 180°
2026-05-01 07:43 34.23971 126.64593 13469 ft 381 kts 180°
2026-05-01 07:44 34.18852 126.64840 13265 ft 351 kts 180°
2026-05-01 07:44 34.14111 126.65064 12962 ft 334 kts 181°
2026-05-01 07:45 34.11826 126.65170 12662 ft 332 kts 181°
2026-05-01 07:45 34.09526 126.65276 12327 ft 328 kts 180°
2026-05-01 07:45 34.07257 126.65381 11850 ft 325 kts 180°
2026-05-01 07:45 34.04995 126.65486 11341 ft 324 kts 180°
2026-05-01 07:46 34.02750 126.65591 10884 ft 322 kts 180°
2026-05-01 07:46 34.00520 126.65696 10443 ft 318 kts 180°
2026-05-01 07:46 33.96122 126.65901 9514 ft 314 kts 179°
2026-05-01 07:47 33.93948 126.66003 9034 ft 311 kts 179°
2026-05-01 07:47 33.91795 126.66104 8560 ft 308 kts 179°
2026-05-01 07:47 33.89664 126.66204 8103 ft 305 kts 179°
2026-05-01 07:47 33.87549 126.66303 7658 ft 303 kts 179°
2026-05-01 07:48 33.83397 126.66498 6769 ft 298 kts 179°
2026-05-01 07:48 33.81338 126.66594 6338 ft 296 kts 179°
2026-05-01 07:48 33.79288 126.66690 5887 ft 293 kts 179°
2026-05-01 07:49 33.77259 126.66786 5472 ft 289 kts 180°
2026-05-01 07:49 33.73939 126.66942 4770 ft 285 kts 181°
2026-05-01 07:49 33.71301 126.67064 4151 ft 282 kts 182°
2026-05-01 07:50 33.70024 126.67125 4070 ft 272 kts 182°
2026-05-01 07:50 33.66448 126.67296 3836 ft 243 kts 183°
2026-05-01 07:50 33.64796 126.67374 3610 ft 233 kts 183°
2026-05-01 07:51 33.62650 126.67472 3267 ft 229 kts 183°
2026-05-01 07:51 33.61142 126.67275 3057 ft 209 kts 211°
2026-05-01 07:51 33.60337 126.66670 2964 ft 196 kts 229°
2026-05-01 07:52 33.58823 126.64113 2613 ft 187 kts 245°
2026-05-01 07:52 33.58155 126.62793 2496 ft 184 kts 245°
2026-05-01 07:52 33.57510 126.61531 2347 ft 169 kts 245°
2026-05-01 07:53 33.56372 126.59300 1955 ft 157 kts 245°
2026-05-01 07:53 33.55812 126.58209 1735 ft 151 kts 244°
2026-05-01 07:53 33.55263 126.57133 1519 ft 151 kts 244°
2026-05-01 07:53 33.54714 126.56065 1305 ft 149 kts 242°
2026-05-01 07:54 33.53673 126.54030 909 ft 141 kts 242°
2026-05-01 07:55 33.52118 126.50991 260 ft 144 kts 241°
2026-05-01 07:55 33.51118 126.49028 93 ft 120 kts 238°
2026-05-01 07:56 33.50508 126.47970 92 ft 28 kts 211°
2026-05-01 07:56 33.50473 126.48166 92 ft 23 kts 58°
2026-05-01 07:57 33.50557 126.48328 89 ft 23 kts 59°
2026-05-01 07:57 33.50717 126.48639 92 ft 21 kts 58°
2026-05-01 07:58 33.50868 126.48931 92 ft 20 kts 58°
2026-05-01 07:58 33.51010 126.49203 89 ft 19 kts 57°
2026-05-01 07:59 33.50945 126.49409 88 ft 13 kts 143°
2026-05-01 07:59 33.50811 126.49440 89 ft 4 kts 177°
2026-05-01 08:00 33.50803 126.49441 92 ft 0 kts 177°